Laramie, WY

5:37 AM MST on December 12, 2017 (GMT -0700)
Laramie Regional

Weather History for KLAR - February, 2014

Change the Weather History Date:

Wednesday, February 12, 2014

  Actual Average Record
Temperature  
Mean Temperature 25 °F 23 °F  
Max Temperature 35 °F 34 °F 56 °F (1954)
Min Temperature 14 °F 11 °F -21 °F (1986)
Degree Days  
Heating Degree Days 40 42  
Month to date heating degree days 570 514  
Since 1 July heating degree days 5431 5529  
Cooling Degree Days 0 0  
Month to date cooling degree days 0 0  
Year to date cooling degree days 0 0  
Moisture  
Dew Point 20 °F    
Average Humidity 72    
Maximum Humidity 92    
Minimum Humidity 51    
Precipitation  
Precipitation T in 0.01 in 0.20 in (2012)
Month to date precipitation T 0.13  
Year to date precipitation 0.68 0.40  
Sea Level Pressure  
Sea Level Pressure 29.97 in    
Wind  
Wind Speed 19 mph (WSW)    
Max Wind Speed 40 mph    
Max Gust Speed 49 mph    
Visibility 10 miles    
Events      
T = Trace of Precipitation, MM = Missing Value Source: NWS Daily Summary

Daily Weather History Graph

Daily Weather History Graph

Search for Another Location

Airport or City:

Trip Planner

Search our weather history database for the weather conditions in past years. The results will help you decide how hot, cold, wet, or windy it might be!

Date:

Astronomy

Feb. 12, 2014 Rise Set
Actual Time 7:01 AM MST 5:33 PM MST
Civil Twilight 6:32 AM MST 6:01 PM MST
Nautical Twilight 6:00 AM MST 6:34 PM MST
Astronomical Twilight 5:28 AM MST 7:06 PM MST
Moon 3:48 PM MST 5:20 AM MST
Length of Visible Light 11h 28m
Length of Day
10h 31m
Waxing Gibbous, 96% of the Moon is Illuminated
Feb 12
Waxing Gibbous
Feb 14
Full
Feb 22
Last Quarter
Mar 1
New
Mar 8
First Quarter

Hourly Weather History & Observations

Time (MST) Temp. Windchill Dew Point Humidity Pressure Visibility Wind Dir Wind Speed Gust Speed Precip Events Conditions
12:53 AM 21.9 °F 8.2 °F 18.0 °F 85% 30.13 in 10.0 mi NNW 16.1 mph - 0.00 in   Overcast
1:53 AM 18.0 °F 8.7 °F 15.1 °F 88% 30.12 in 10.0 mi North 6.9 mph - N/A   Clear
2:53 AM 16.0 °F - 14.0 °F 92% 30.14 in 10.0 mi Calm Calm - N/A   Clear
3:53 AM 15.1 °F 3.3 °F 12.9 °F 91% 30.15 in 10.0 mi ESE 9.2 mph - N/A   Clear
4:53 AM 16.0 °F 6.3 °F 12.9 °F 88% 30.13 in 10.0 mi SE 6.9 mph - N/A   Clear
5:53 AM 23.0 °F 9.6 °F 15.1 °F 72% 30.11 in 10.0 mi WSW 16.1 mph - N/A   Clear
6:53 AM 25.0 °F 13.1 °F 16.0 °F 69% 30.09 in 10.0 mi SW 13.8 mph - N/A   Clear
7:53 AM 25.0 °F 11.3 °F 16.0 °F 69% 30.06 in 10.0 mi SSW 18.4 mph 23.0 mph N/A   Mostly Cloudy
8:53 AM 28.0 °F 12.8 °F 17.1 °F 63% 30.01 in 10.0 mi WSW 27.6 mph 40.3 mph N/A   Scattered Clouds
9:53 AM 28.0 °F 14.9 °F 17.1 °F 63% 30.01 in 10.0 mi SSW 19.6 mph - N/A   Clear
10:53 AM 30.0 °F 15.7 °F 17.1 °F 59% 29.96 in 10.0 mi SW 26.5 mph - N/A   Clear
11:53 AM 34.0 °F 20.8 °F 17.1 °F 50% 29.88 in 10.0 mi WSW 27.6 mph 38.0 mph N/A   Clear
12:53 PM 34.0 °F 22.4 °F 19.9 °F 56% 29.91 in 10.0 mi WSW 20.7 mph - N/A   Mostly Cloudy
1:53 PM 35.1 °F 23.3 °F 21.0 °F 57% 29.88 in 10.0 mi WSW 23.0 mph 34.5 mph N/A   Mostly Cloudy
2:53 PM 34.0 °F 23.4 °F 23.0 °F 64% 29.91 in 10.0 mi SW 17.3 mph - N/A   Overcast
3:53 PM 35.1 °F 23.8 °F 23.0 °F 61% 29.88 in 10.0 mi WSW 20.7 mph 27.6 mph N/A   Overcast
4:53 PM 35.1 °F 28.6 °F 21.9 °F 59% 29.89 in 10.0 mi SSW 8.1 mph - N/A   Overcast
5:53 PM 33.1 °F 23.4 °F 23.0 °F 66% 29.87 in 10.0 mi WSW 13.8 mph - N/A   Mostly Cloudy
6:53 PM 32.0 °F 18.9 °F 24.1 °F 73% 29.85 in 10.0 mi WSW 24.2 mph - N/A   Clear
7:53 PM 32.0 °F 17.9 °F 25.0 °F 75% 29.85 in 10.0 mi WSW 28.8 mph 35.7 mph N/A   Clear
8:53 PM 34.0 °F 20.3 °F 26.1 °F 73% 29.83 in 10.0 mi West 29.9 mph 42.6 mph N/A   Clear
9:53 PM 33.1 °F 18.9 °F 26.1 °F 75% 29.84 in 10.0 mi West 31.1 mph - N/A   Clear
10:53 PM 33.1 °F 19.3 °F 26.1 °F 75% 29.84 in 10.0 mi West 28.8 mph - N/A   Clear
11:53 PM 32.0 °F 19.8 °F 25.0 °F 75% 29.86 in 10.0 mi WNW 20.7 mph - N/A   Clear